www.pogodaiklimat.ru

Погода и климат >> Архив погоды >> Россия >> Якутия >> Покровск


ПОГОДА в Покровске

  • Прогноз погоды в Покровске
  • Монитор погоды в Покровске

АРХИВ ПОГОДЫ в Покровске

Время (UTC), дата Ветер
(напр.,м/с)
 
Видим.   Явления Облачность Т
(С)
Тd
(С)
f
(%)
Тe
(С)
Тes
(С)
Комфортность P
(гПа)
Po
(гПа)
Тmin
(С)
Tmax
(С)
R
(мм)
R24
(мм)
S
(см)
03 14.05 В 5 50 км 10/0
[Ci fib]
+16.4 -4.2 24 +16 +21 1009.3 995.0
06 14.05 ЮВ 5
{12}
50 км 10/0
[Ci fib]
+16.0 -3.8 25 +15 +19 1008.3 994.0
09 14.05 Ю 3 50 км 10/3 600 м
[Sc Ac und]
+11.4 +3.5 58 +10 +10 1009.0 994.5
12 14.05 штиль 0 50 км {дождь} 10/10 600 м
[Sc]
+8.6 +7.1 90 +8 +8 1009.4 994.8 +17.9 0.0
15 14.05 СВ 2 20 км {дождь} 10/10 600 м
[Sc]
+7.8 +6.3 90 +6 +6 1009.0 994.3
18 14.05 В 2 50 км {дождь} 10/10 600 м
[Sc]
+7.4 +6.5 94 +5 +5 1008.2 993.5
21 14.05 СВ 1 50 км 10/6 600 м
[Sc Ac und]
+7.0 +6.6 97 +6 +6 1007.5 992.8
00 15.05 З 2 50 км 10/0
[Ac trans Ci fib]
+10.1 +7.4 83 +9 +12 1006.2 991.8 +7.0 0.3
03 15.05 ЮВ 3 50 км 10/4 1000 м
[Sc Ac trans Ci fib]
+14.8 +6.3 57 +14 +17 1005.0 990.8
06 15.05 СВ 4 50 км 10/3 600 м
[Cu hum Ac trans Ci fib]
+17.0 +6.0 48 +17 +19 1003.9 989.8
09 15.05 С 6 20 км 10/1 600 м
[Cu med, cong Ci fib]
+17.0 +6.5 50 +16 +17 1003.2 989.1
12 15.05 З 3 10 км слаб. дождь 10/0 600 м
[As op]
+12.6 +11.1 91 +11 +11 1004.1 989.8 +18.6 2
15 15.05 СВ 2 20 км {дождь} 10/8 1000 м
[Sc Ci fib]
+10.5 +9.7 95 +9 +9 1004.3 989.9
18 15.05 СВ 2 20 км {дождь} 10/3 1000 м
[Sc Ci fib]
+8.0 +6.5 90 +6 +6 1004.6 990.1
21 15.05 С 2 20 км 10/0
[Ci fib]
+8.8 +7.3 90 +7 +8 1004.7 990.2
00 16.05 С 3 50 км 3/3 1000 м
[Sc]
+13.1 +9.6 79 +12 +16 1004.0 989.7 +5.6 0.4
03 16.05 СВ 4 50 км 3/3 600 м
[Cu med, cong]
+19.6 +9.5 52 +21 +27 комфорт 1002.8 988.8
06 16.05 В 3 50 км 6/6 600 м
[Cu med, cong]
+21.0 +3.8 32 +22 +25 комфорт 1001.2 987.3
09 16.05 В 4 50 км 4/4 600 м
[Cu med, cong]
+19.6 +1.3 29 +20 +21 1000.8 986.9
12 16.05 В 4 50 км 6/0
[Ci fib]
+16.7 +1.4 36 +16 +16 1001.7 987.6 +21.8
15 16.05 В 2 20 км 6/0
[Ci fib]
+11.6 +1.5 50 +11 +11 1003.5 989.1
18 16.05 СВ 3 20 км слаб. дождь 10/0
[As op]
+9.3 -2.7 43 +8 +8 1003.9 989.4
21 16.05 В 3 50 км {дождь} 8/8 600 м
[Sc]
+8.1 +2.1 66 +6 +6 1004.0 989.4
00 17.05 В 4 50 км {дождь} 10/10 600 м
[Sc]
+8.0 +3.3 72 +5 +5 1004.2 989.6 +8.0 0.0
03 17.05 СВ 4 50 км 10/10 600 м
[Sc]
+9.8 +3.6 65 +7 +7 1003.9 989.4
06 17.05 СВ 4 50 км 10/8 600 м
[Sc Cs]
+13.6 +4.2 53 +12 +13 1002.4 988.1
09 17.05 ЮВ 3 50 км 10/10 600 м
[Sc]
+12.6 +3.2 53 +11 +11 1002.3 988.0
12 17.05 С 3 50 км 10/10 600 м
[Sc]
+12.3 +5.4 63 +11 +11 1002.2 987.9 +14.4
15 17.05 Ю 1 20 км 10/10 600 м
[Sc]
+11.2 +5.3 67 +11 +11 1002.5 988.1
18 17.05 В 2 50 км 4/0
[Ac trans]
+9.4 +3.4 66 +8 +8 1003.1 988.6
21 17.05 СВ 4 50 км 3/0
[Ac trans]
+7.5 +1.6 66 +4 +5 1003.6 989.0
00 18.05 СВ 5 50 км 10/0
[Ci fib]
+11.0 +3.0 58 +9 +12 1003.3 988.9 +7.3
03 18.05 СВ 5 50 км 8/3 600 м
[Cb calv Ci fib]
+15.6 +3.7 45 +15 +19 1001.9 987.7
06 18.05 СВ 3 50 км 10/8 1000 м
[Sc Ci fib]
+16.1 +2.3 39 +16 +17 1001.0 986.9
09 18.05 СВ 3 50 км 10/8 600 м
[Sc Cs]
+18.0 +2.5 35 +18 +19 1000.1 986.1
12 18.05 С 2 50 км 10/6 600 м
[Sc Cs]
+15.2 +3.1 44 +15 +15 1000.0 985.9 +18.9
15 18.05 СЗ 3 20 км 10/10 600 м
[Sc]
+13.5 +2.1 46 +13 +13 1000.6 986.4
18 18.05 СЗ 4 50 км 10/4 600 м
[Sc Cs]
+9.2 +2.6 63 +7 +7 1002.4 987.9
21 18.05 СЗ 4 50 км 10/8 600 м
[Sc Cs]
+5.2 +0.3 71 +1 +2 1005.0 990.3
00 19.05 СЗ 5 20 км 10/0
[Ac und]
+5.3 -0.5 66 +1 +2 1006.2 991.5 +4.5
03 19.05 Ю 3 20 км 10/0
[Ac trans Ci fib]
+6.6 +0.2 64 +4 +12 1007.2 992.5
06 19.05 З 5 20 км 10/0
[Ci fib]
+12.2 -7.8 24 +10 +15 1006.8 992.4
09 19.05 СЗ 6-10
{11}
50 км 10/0
[Ci fib]
+10.4 -5.7 32 +8 +9 1008.5 993.9
12 19.05 Ю 5
{11}
20 км 3/0
[Ci fib]
+7.0 -6.1 39 +4 +4 1010.7 996.0 +13.3
15 19.05 СЗ 4 20 км ясно +3.5 -6.3 49 -0 -0 1012.6 997.6
18 19.05 З 3 20 км ясно -5.0 -9.9 68 -10 -10 1013.6 998.2
21 19.05 З 4 20 км ясно +0.4 -7.4 56 -4 -3 1014.2 999.0
00 20.05 З 3 50 км ясно +5.1 -10.0 33 +3 +9 1014.0 999.1 -5.2
03 20.05 СЗ 4 50 км ясно +9.6 -12.6 19 +8 +16 1013.2 998.5
06 20.05 С 3 50 км 3/0
[Ci fib]
+11.5 -9.5 22 +10 +18 1012.4 997.8
09 20.05 СЗ 4 50 км 4/0
[Ci fib]
+11.4 -10.3 21 +10 +12 1012.9 998.3
12 20.05 С 2 50 км 4/0
[Ci fib]
+8.4 -8.8 29 +7 +7 1013.8 999.0 +11.8
15 20.05 З 2 20 км ясно -2.3 -5 -5 1015.0 999.7
18 20.05 ЮЗ 2 50 км ясно -5.7 -10.0 72 -10 -10 1015.8 1000.2
21 20.05 штиль 0 50 км ясно -1.0 -8.4 57 -2 +1 1016.0 1000.8
00 21.05 СВ 2 50 км 1/0
[Ci fib]
+7.0 -3.7 46 +5 +13 1015.2 1000.4 -5.7

 

Местоположение метеостанции Покровск (Якутия, Россия): широта 61.48 долгота 129.10 высота над уровнем моря 121 м.

В архиве по умолчанию представлена погода в Покровске за последнюю неделю. Архивные данные за месяц целиком и за предыдущие месяцы, начиная с января 2011 года, Вы можете получить, выбрав интересующий диапазон дат из раскрывающегося списка и нажав кнопку "Ввод!".


*Определитесь, кто Вы:
робот инопланетянин человек

Внимание! Время в таблицах - всемирное. Для получения местного времени необходимо прибавить поправку, которая равна 9 ч.

Смотрите также архив погоды в соседних городах и на ближайших метеорологических станциях:

Погода в Якутске (Якутия, Россия) (64 км)
Погода в Тегюльте (Якутия, Россия) (122 км)
Погода в Намцах (Якутия, Россия) (140 км)
Погода в Бердигестяхе (Якутия, Россия) (141 км)
Погода в Амге (Якутия, Россия) (163 км)
Погода в Чурапче (Якутия, Россия) (194 км)
Погода в Исити (Якутия, Россия) (217 км)
Погода в Батамае (Якутия, Россия) (227 км)
Погода в Буяге (Якутия, Россия) (232 км)
Погода в Тонгулахе (Якутия, Россия) (247 км)

Пояснения к столбцам:

Ветер - указаны скорость ветра в м/с - средняя за 10 мин, порывы в срок и между сроками (в фигурных скобках) и направление, откуда дует ветер: С - северный, СВ - северо-восточный, В - восточный, ЮВ - юго-восточный, Ю - южный, ЮЗ - юго-западный, З - западный, СЗ - северо-западный.
Видимость - горизонтальная дальность видимости в метрах или километрах. При видимости от 1 до 10 км при отсутствии осадков обычно наблюдается дымка, при ухудшении видимости до 1 км и менее - туман. В сухую погоду видимость может ухудшаться дымом, пылью или мглою.
Явления - указаны атмосферные явления, наблюдавшиеся в срок или в последний час перед сроком; фигурными скобками обозначены явления, наблюдавшиеся между сроками (за 1-3 часа до срока); квадратными скобками обозначены град или гололедные отложения с указанием их диаметра в мм.
Облачность - указаны через наклонную черту общая и нижняя облачность в баллах и высота нижней границы облаков в метрах; квадратными скобками обозначены формы облаков: Ci - перистые, Cs - перисто-слоистые, Cc - перисто-кучевые, Ac - высококучевые, As - высокослоистые, Sc - слоисто-кучевые, Ns - слоисто-дождевые, Cu - кучевые, Cb - кучево-дождевые. Подробнее классификацию облаков см. в Атласе облаков (PDF).
T - Температура воздуха - температура, измеренная на высоте 2 м над землей.
Td - Температура точки росы - температура, при понижении до которой содержащийся в воздухе водяной пар достигнет насыщения.
f - Относительная влажность воздуха - влажноcть воздуха, измеренная на высоте 2 м над землей.
Te - Эффективная температура - температура, которую ощущает одетый по сезону человек в тени. Характеристика душности погоды. При расчете учитывается влияние влажности воздуха и скорости ветра на теплоощущения человека.
Tes - Эффективная температура на солнце - температура, которую ощущает человек, с поправкой на солнечный нагрев. Характеристика знойности погоды. Зависит от высоты солнца над горизонтом, облачности и скорости ветра. Ночью, в пасмурную погоду, а также при ветре 12 м/с и более поправка равна нулю.
P - Атмосферное давление - приведенное к уровню моря атмосферное давление.
Po - Атмосферное давление - измеренное на уровне метеостанции атмосферное давление.
Tmin - Минимальная температура - минимум температуры воздуха на высоте 2 м над землей.
Tmax - Максимальная температура - максимум температуры воздуха на высоте 2 м над землей.
R - Количество осадков - Количество выпавших осадков за период времени, мм. При наведении курсора мыши на число - период времени, за который выпало указанное количество осадков.
R24 - Количество осадков - Количество выпавших осадков за 24 часа, мм.
S - Снежный покров - Высота снежного покрова, см. При наведении курсора мыши на число - состояние снежного покрова и степень покрытия местности в баллах.